Location: Gisborne
(38.6530°S, 178.0040°E)
Time: 23:10:28
(UTC+13:00)

MOS 1 - Pass Details

Date: 24 January 2019
Orbit: 878 x 891 km, 99.2° (Epoch: 20 February)

Event Time Altitude Azimuth Distance (km) Brightness Sun altitude
Rises 21:11:14 0° 168° (SSE) 3,539 7.7 -7.9°
Reaches altitude 10° 21:13:39 10° 168° (SSE) 2,592 7.0 -8.3°
Maximum altitude 21:19:26 82° 254° (WSW) 915 4.5 -9.3°
Drops below altitude 10° 21:25:09 10° 341° (NNW) 2,558 6.6 -10.2°
Sets 21:27:32 0° 341° (NNW) 3,488 7.2 -10.6°
